1297123225853,0.562230
1297123285853,0.557580
1297123345853,0.561901
1297123405853,0.563087
1297123465853,0.561842
1297123525853,0.563248
1297123585853,0.562568
1297123645853,0.559188
1297123705853,0.570901
1297123765853,0.560633
1297123825853,0.556691
1297123885853,0.559089
1297123945853,0.559687
1297124005853,0.561159
1297124065853,0.560443
1297124125853,0.558710
1297124185853,0.558794
1297124245853,0.561693
1297124305853,0.567011
1297124365853,0.560980
1297124425853,0.562164
1297124485853,0.558895
1297124545853,0.558441
1297124605853,0.563292
1297124665853,0.558303
1297124725853,0.554061
1297124785853,0.558501
1297124845853,0.563570
1297124905853,0.564238
1297124965853,0.565696
1297125025853,0.559368
1297125085853,0.562819
1297125145853,0.558739
1297125205853,0.560612
1297125265853,0.559979
1297125325853,0.564369
1297125385853,0.564115
1297125445853,0.563547
1297125505853,0.558790
1297125565853,0.558527
1297125625853,0.558643
1297125685853,0.563900
1297125745853,0.558363
1297125805853,0.569097
1297125865853,0.556038
1297125925853,0.562362
1297125985853,0.564563
1297126045853,0.561433
1297126105853,0.560462
1297126165853,0.564821
1297126225853,0.561470
1297126285853,0.556482
1297126345853,0.559976
1297126405853,0.560224
1297126465853,0.563083
1297126525853,0.563106
1297126585853,0.559317
1297126645853,0.557450
1297126705853,0.561332
1297126765853,0.556244
1297126825863,0.561826
1297126885863,0.560505
1297126945863,0.560367
1297127005863,0.563043
1297127065863,0.560272
1297127125863,0.559857
1297127185863,0.559624
1297127245863,0.555935
1297127305863,0.560268
1297127365863,0.559166
1297127425863,0.565512
1297127485863,0.567639
1297127545863,0.558079
1297127605863,0.558482
1297127665863,0.553874
1297127725863,0.562151
1297127785863,0.565527
1297127845863,0.561147
1297127905863,0.560958
1297127965863,0.561242
1297128025863,0.563479
1297128085863,0.559581
1297128145863,0.561454
1297128205863,0.563167
1297128265863,0.563433
1297128325863,0.553165
1297128385863,0.562465
1297128445863,0.563473
1297128505863,0.556961
1297128565863,0.557310
1297128625863,0.564623
1297128685863,0.563454
1297128745863,0.562863
1297128805863,0.563215
1297128865863,0.567341
1297128925863,0.561558
1297128985863,0.563089
1297129045863,0.560522
1297129105863,0.562677
1297129165863,0.562462
1297129225863,0.562844
1297129285863,0.559049
1297129345863,0.562215
1297129405863,0.560482
1297129465863,0.566745
1297129525863,0.562128
1297129585863,0.562327
1297129645863,0.561670
1297129705863,0.558535
1297129765863,0.561989
1297129825863,0.562245
1297129885863,0.559452
1297129945863,0.566722
1297130005863,0.561737
1297130065863,0.557563
1297130125863,0.565410
1297130185863,0.562676
1297130245863,0.566385
1297130305863,0.565368
1297130365863,0.565579
1297130425874,0.566518
1297130485874,0.565198
1297130545874,0.563893
1297130605874,0.564362
1297130665874,0.566725
1297130725874,0.565863
1297130785874,0.562145
1297130845874,0.560846
1297130905874,0.560315
1297130965874,0.559122
1297131025874,0.567037
1297131085874,0.564268
1297131145874,0.567164
1297131205874,0.562997
1297131265874,0.565462
1297131325874,0.564347
1297131385874,0.557440
1297131445874,0.563644
1297131505874,0.567224
1297131565874,0.563423
1297131625874,0.563092
1297131685874,0.564944
1297131745874,0.562931
1297131805874,0.560481
1297131865874,0.562099
1297131925874,0.567885
1297131985874,0.565307
1297132045874,0.575261
1297132105874,0.563822
1297132165874,0.563517
1297132225874,0.565056
1297132285874,0.565303
1297132345874,0.566962
1297132405874,0.565762
1297132465874,0.563030
1297132525874,0.567524
1297132585874,0.565746
1297132645874,0.563317
1297132705874,0.564614
1297132765874,0.570807
1297132825874,0.564617
1297132885874,0.565666
1297132945874,0.563041
1297133005874,0.562288
1297133065874,0.567350
1297133125874,0.565777
1297133185874,0.563951
1297133245874,0.557296
1297133305874,0.564794
1297133365874,0.567285
1297133425874,0.567868
1297133485874,0.571642
1297133545874,0.568026
1297133605874,0.561182
1297133665874,0.566665
1297133725874,0.564352
1297133785874,0.563418
1297133845874,0.567546
1297133905874,0.561443
1297133965874,0.567626
1297134025885,0.566052
1297134085885,0.561144
1297134145885,0.564820
1297134205885,0.564693
1297134265885,0.561383
1297134325885,0.560881
1297134385885,0.556115
1297134445885,0.564693
1297134505885,0.568059
1297134565885,0.557119
1297134625885,0.560080
1297134685885,0.561352
1297135225885,0.559499
1297135285885,0.603244
1297135345885,0.561569
1297135405885,0.560389
1297135465885,0.560457
1297135525885,0.561646
1297135585885,0.564545
1297135645885,0.560309
1297135705885,0.568016
1297135765885,0.560221
1297135825885,0.557933
1297135885885,0.564201
1297135945885,0.558259
1297136005885,0.565691
1297136065885,0.568137
1297136125885,0.569050
1297136185885,0.564510
1297136245885,0.558453
1297136305885,0.560571
1297136365885,0.565943
1297136425885,0.560789
1297136485885,0.565032
1297136545885,0.563683
1297136605885,0.566567
1297136665885,0.562289
1297136725885,0.562527
1297136785885,0.563789
1297136845885,0.559726
1297136905885,0.559871
1297136965885,0.568603
1297137025885,0.562935
1297137085885,0.561558
1297137145885,0.560786
1297137205885,0.567817
1297137265885,0.567027
1297137325885,0.560741
1297137385885,0.566988
1297137445885,0.564388
1297137505885,0.569445
1297137565885,0.566433
1297137625896,0.564152
1297137685896,0.565444
1297137745896,0.560833
1297137805896,0.566896
1297137865896,0.563519
1297137925896,0.559885
1297137985896,0.572907
1297138045896,0.574544
1297138105896,0.565231
1297138165896,0.561135
1297138225896,0.567355
1297138285896,0.563944
1297138345896,0.564886
1297138405896,0.561075
1297138465896,0.564610
1297138525896,0.567247
1297138585896,0.569006
1297138645896,0.566053
1297138705896,0.564695
1297138765896,0.564948
1297138825896,0.562188
1297138885896,0.562689
1297138945896,0.563331
1297139005896,0.568612
1297139065896,0.569922
1297139125896,0.567827
1297139185896,0.560224
1297139245896,0.568894
1297139305896,0.563914
1297139365896,0.574017
1297139425896,0.560638
1297139485896,0.561672
1297139545896,0.569431
1297139605896,0.562879
1297139665896,0.571709
1297139725896,0.574396
1297139785896,0.567186
1297139845896,0.565188
1297139905896,0.562661
1297139965896,0.563902
1297140025896,0.572550
1297140085896,0.568196
1297140145896,0.568598
1297140205896,0.562580
1297140265896,0.566138
1297140325896,0.569693
1297140385896,0.568413
1297140445896,0.567408
1297140505896,0.568922
1297140565896,0.563348
1297140625896,0.563886
1297140685896,0.566732
1297140745896,0.566661
1297140805896,0.568971
1297140865896,0.569889
1297140925896,0.566899
1297140985896,0.572222
1297141045896,0.566068
1297141105896,0.568427
1297141165896,0.568988
1297141225907,0.567895
1297141285907,0.565875
1297141345907,0.572096
1297141405907,0.568864
1297141465907,0.569555
1297141525907,0.564648
1297141585907,0.572175
1297141645907,0.570196
1297141705907,0.563841
1297141765907,0.570252
1297141825907,0.572552
1297141885907,0.564274
1297141945907,0.567784
1297142005907,0.573461
1297142065907,0.570448
1297142125907,0.566754
1297142185907,0.575190
1297142245907,0.565962
1297142305907,0.570872
1297142365907,0.564812
1297142425907,0.566166
1297142485907,0.570311
1297142545907,0.566824
1297142605907,0.573374
1297142665907,0.565724
1297142725907,0.570105
1297142785907,0.571459
1297142845907,0.569331
1297142905907,0.568712
1297142965907,0.572918
1297143025907,0.578059
1297143085907,0.572106
1297143145907,0.567789
1297143205907,0.565431
1297143265907,0.567257
1297143325907,0.567757
1297143385907,0.568993
1297143445907,0.574755
1297143505907,0.576564
1297143565907,0.573673
1297143625907,0.571732
1297143685907,0.572233
1297143745907,0.574247
1297143805907,0.573573
1297143865907,0.573025
1297143925907,0.569928
1297143985907,0.574786
1297144045907,0.569343
1297144105907,0.573125
1297144165907,0.574029
1297144225907,0.570675
1297144285907,0.563548
1297144345907,0.574502
1297144405907,0.567412
1297144465907,0.571597
1297144525907,0.566276
1297144585907,0.568945
1297144645907,0.576905
1297144705907,0.571044
1297144765907,0.568132
1297144825918,0.564982
1297144885918,0.576190
1297144945918,0.568698
1297145005918,0.574486
1297145065918,0.568540
1297145125918,0.568514
1297145185918,0.567921
1297145245918,0.574880
1297145305918,0.573938
1297145365918,0.566082
1297145425918,0.563128
1297145485918,0.567819
1297145545918,0.570198
1297145605918,0.574823
1297145665918,0.569459
1297145725918,0.567533
1297145785918,0.569229
1297145845918,0.567759
1297145905918,0.571456
1297145965918,0.568037
1297146025918,0.568902
1297146085918,0.567594
1297146145918,0.577772
1297146205918,0.574089
1297146265918,0.568218
1297146325918,0.572764
1297146385918,0.571585
1297146445918,0.576383
1297146505918,0.568454
1297146565918,0.567223
1297146625918,0.575422
1297146685918,0.571541
1297146745918,0.577681
1297146805918,0.579134
1297146865918,0.577794
1297146925918,0.571207
1297146985918,0.573945
1297147045918,0.570959
1297147105918,0.575096
1297147165918,0.571086
1297147225918,0.569970
1297147285918,0.567915
1297147345918,0.574316
1297147405918,0.571222
1297147465918,0.574776
1297147525918,0.573288
1297147585918,0.572785
1297147645918,0.567866
1297147705918,0.572007
1297147765918,0.571954
1297147825918,0.569270
1297147885918,0.571103
1297147945918,0.572646
1297148005918,0.577553
1297148065918,0.572774
1297148125918,0.576438
1297148185918,0.572614
1297148245918,0.579413
1297148305918,0.578458
1297148365918,0.574193
1297148425930,0.578274
1297148485930,0.570278
1297148545930,0.571093
1297148605930,0.578339
1297148665930,0.574935
1297148725930,0.576488
1297148785930,0.576530
1297148845930,0.572283
1297148905930,0.578838
1297148965930,0.576956
1297149025930,0.574496
1297149085930,0.572708
1297149145930,0.569296
1297149205930,0.572017
1297149265930,0.574661
1297149325930,0.580045
1297149385930,0.568464
1297149445930,0.579149
1297149505930,0.571598
1297149565930,0.575567
1297149625930,0.572295
1297149685930,0.574296
1297149745930,0.576360
1297149805930,0.579391
1297149865930,0.572613
1297149925930,0.571286
1297149985930,0.578128
1297150045930,0.577990
1297150105930,0.570659
1297150165930,0.567947
1297150225930,0.570205
1297150285930,0.577631
1297150345930,0.575684
1297150405930,0.577628
1297150465930,0.568900
1297150525930,0.578201
1297150585930,0.568429
1297150645930,0.570755
1297150705930,0.570424
1297150765930,0.573491
1297150825930,0.570372
1297150885930,0.570935
1297150945930,0.569858
1297151005930,0.578103
1297151065930,0.574722
1297151125930,0.575221
1297151185930,0.571933
1297151245930,0.569013
1297151305930,0.570808
1297151365930,0.578613
1297151425930,0.574148
1297151485930,0.572061
1297151545930,0.570161
1297151605930,0.571637
1297151665930,0.574998
1297151725930,0.571971
1297151785930,0.572075
1297151845930,0.571386
1297151905930,0.576450
1297151965930,0.579645
1297152025942,0.566788
1297152085942,0.577217
1297152145942,0.569235
1297152205942,0.577141
1297152265942,0.574436
1297152325942,0.575689
1297152385942,0.571389
1297152445942,0.569653
1297152505942,0.575416
1297152565942,0.577230
1297152625942,0.577653
1297152685942,0.573356
1297152745942,0.573435
1297152805942,0.576027
1297152865942,0.572887
1297152925942,0.568458
1297152985942,0.576401
1297153045942,0.580039
1297153105942,0.577793
1297153165942,0.573171
1297153225942,0.580960
1297153285942,0.578513
1297153345942,0.580604
1297153405942,0.579783
1297153465942,0.582787
1297153525942,0.576508
1297153585942,0.575802
1297153645942,0.581459
1297153705942,0.575995
1297153765942,0.579717
1297153825942,0.578034
1297153885942,0.582227
1297153945942,0.577477
1297154005942,0.576688
1297154065942,0.576706
1297154125942,0.568091
1297154185942,0.574205
1297154245942,0.573850
1297154305942,0.576965
1297154365942,0.577658
1297154425942,0.571714
1297154485942,0.576535
1297154545942,0.579593
1297154605942,0.572185
1297154665942,0.579064
1297154725942,0.575547
1297154785942,0.572722
1297154845942,0.574120
1297154905942,0.576554
1297154965942,0.569787
1297155025942,0.573396
1297155085942,0.576726
1297155145942,0.574375
1297155205942,0.583710
1297155265942,0.573204
1297155325942,0.570149
1297155385942,0.577316
1297155445942,0.573072
1297155505942,0.578663
1297155565942,0.575248
1297155625953,0.574652
1297155685953,0.579193
1297155745953,0.577286
1297155805953,0.571397
1297155865953,0.577139
1297155925953,0.573226
1297155985953,0.575965
1297156045953,0.577681
1297156105953,0.579580
1297156165953,0.569022
1297156225953,0.573965
1297156285953,0.571441
1297156345953,0.578385
1297156405953,0.569808
1297156465953,0.573230
1297156525953,0.579066
1297156585953,0.580800
1297156645953,0.579461
1297156705953,0.571711
1297156765953,0.575812
1297156825953,0.583580
1297156885953,0.582174
1297156945953,0.578631
1297157005953,0.571377
1297157065953,0.578433
1297157125953,0.578687
1297157185953,0.575606
1297157245953,0.578038
1297157305953,0.581562
1297157365953,0.577926
1297157425953,0.575305
1297157485953,0.579249
1297157545953,0.583285
1297157605953,0.574817
1297157665953,0.581765
1297157725953,0.580188
1297157785953,0.576572
1297157845953,0.584962
1297157905953,0.572102
1297157965953,0.573391
1297158025953,0.577906
1297158085953,0.570959
1297158145953,0.580852
1297158205953,0.575828
1297158265953,0.581119
1297158325953,0.581268
1297158385953,0.574212
1297158445953,0.578541
1297158505953,0.577080
1297158565953,0.574776
1297158625953,0.582650
1297158685953,0.580220
1297158745953,0.579292
1297158805953,0.573083
1297158865953,0.577030
1297158925953,0.571343
1297158985953,0.574529
1297159045953,0.574920
1297159105953,0.572988
1297159165953,0.576495
1297159225965,0.579792
1297159285965,0.579828
1297159345965,0.577647
1297159405965,0.576694
1297159465965,0.571179
1297159525965,0.577851
1297159585965,0.577125
1297159645965,0.569864
1297159705965,0.576738
1297159765965,0.572573
1297159825965,0.582266
1297159885965,0.580000
1297159945965,0.573345
1297160005965,0.577215
1297160065965,0.572468
1297160125965,0.573092
1297160185965,0.579086
1297160245965,0.566860
1297160305965,0.579071
1297160365965,0.573352
1297160425965,0.572812
1297160485965,0.571247
1297160545965,0.577914
1297160605965,0.578158
1297160665965,0.570983
1297160725965,0.575643
1297160785965,0.573841
1297160845965,0.579943
1297160905965,0.568382
1297160965965,0.579801
1297161025965,0.574282
1297161085965,0.581078
1297161145965,0.576942
1297161205965,0.578826
1297161265965,0.579747
1297161325965,0.582844
1297161385965,0.578047
1297161445965,0.580840
1297161505965,0.579751
1297161565965,0.573890
1297161625965,0.573022
1297161685965,0.575258
1297161745965,0.574034
1297161805965,0.579690
1297161865965,0.577560
1297161925965,0.576784
1297161985965,0.576153
1297162045965,0.573598
1297162105965,0.572566
1297162165965,0.569688
1297162225965,0.576285
1297162285965,0.575990
1297162345965,0.577764
1297162405965,0.576126
1297162465965,0.569593
1297162525965,0.577164
1297162585965,0.578457
1297162645965,0.575978
1297162705965,0.579297
1297162765965,0.580404
1297162825977,0.575377
1297162885977,0.572845
1297162945977,0.573791
1297163005977,0.568425
1297163065977,0.573162
1297163125977,0.567188
1297163185977,0.570297
1297163245977,0.567906
1297163305977,0.577669
1297163365977,0.565543
1297163425977,0.574002
1297163485977,0.570857
1297163545977,0.576547
1297163605977,0.570947
1297163665977,0.575540
1297163725977,0.573308
1297163785977,0.570071
1297163845977,0.572639
1297163905977,0.576560
1297163965977,0.577125
1297164025977,0.576487
1297164085977,0.573150
1297164145977,0.570798
1297164205977,0.573502
1297164265977,0.570308
1297164325977,0.570035
1297164385977,0.573752
1297164445977,0.568752
1297164505977,0.569843
1297164565977,0.573259
1297164625977,0.574746
1297164685977,0.566396
1297164745977,0.575824
1297164805977,0.572267
1297164865977,0.572400
1297164925977,0.571890
1297164985977,0.574704
1297165045977,0.566934
1297165105977,0.577638
1297165165977,0.569281
1297165225977,0.584081
1297165285977,0.578214
1297165345977,0.581568
1297165405977,0.575148
1297165465977,0.576810
1297165525977,0.574731
1297165585977,0.573358
1297165645977,0.582302
1297165705977,0.579564
1297165765977,0.569717
1297165825977,0.576236
1297165885977,0.573704
1297165945977,0.574167
1297166005977,0.579605
1297166065977,0.570102
1297166125977,0.574387
1297166185977,0.576703
1297166245977,0.577293
1297166305977,0.573819
1297166365977,0.575688
1297166425989,0.576442
1297166485989,0.575960
1297166545989,0.573743
1297166605989,0.570710
1297166665989,0.576813
1297166725989,0.573324
1297166785989,0.565984
1297166845989,0.570061
1297166905989,0.571411
1297166965989,0.576589
1297167025989,0.570897
1297167085989,0.573433
1297167145989,0.570556
1297167205989,0.570537
1297167265989,0.572631
1297167325989,0.572663
1297167385989,0.568761
1297167445989,0.569233
1297167505989,0.566993
1297167565989,0.569769
1297167625989,0.574539
1297167685989,0.569394
1297167745989,0.569613
1297167805989,0.569391
1297167865989,0.569428
1297167925989,0.576944
1297167985989,0.566995
1297168045989,0.573657
1297168105989,0.572765
1297168165989,0.570245
1297168225989,0.568057
1297168285989,0.569909
1297168345989,0.571929
1297168405989,0.567786
1297168465989,0.574650
1297168525989,0.576771
1297168585989,0.566896
1297168645989,0.571020
1297168705989,0.566999
1297168765989,0.566887
1297168825989,0.574230
1297168885989,0.568901
1297168945989,0.572023
1297169005989,0.570268
1297169065989,0.574732
1297169125989,0.572379
1297169185989,0.576496
1297169245989,0.573129
1297169305989,0.567847
1297169365989,0.572623
1297169425989,0.577180
1297169485989,0.569969
1297169545989,0.573541
1297169605989,0.569020
1297169665989,0.569321
1297169725989,0.571947
1297169785989,0.565057
1297169845989,0.574423
1297169905989,0.574916
1297169965989,0.576689
1297170026001,0.576000
1297170086001,0.578494
1297170146001,0.573615
1297170206001,0.566975
1297170266001,0.576677
1297170326001,0.572699
1297170386001,0.572477
1297170446001,0.573203
1297170506001,0.580052
1297170566001,0.570916
1297170626001,0.577262
1297170686001,0.577355
1297170746001,0.573748
1297170806001,0.580383
1297170866001,0.566878
1297170926001,0.572665
1297170986001,0.574060
1297171046001,0.569838
1297171106001,0.577692
1297171166001,0.572770
1297171226001,0.572335
1297171286001,0.575182
1297171346001,0.575021
1297171406001,0.572145
1297171466001,0.578649
1297171526001,0.576471
1297171586001,0.568929
1297171646001,0.576822
1297171706001,0.572927
1297171766001,0.568584
1297171826001,0.579085
1297171886001,0.580730
1297171946001,0.573395
1297172006001,0.575842
1297172066001,0.577441
1297172126001,0.568508
1297172186001,0.567963
1297172246001,0.574573
1297172306001,0.571263
1297172366001,0.569036
1297172426001,0.572938
1297172486001,0.572231
1297172546001,0.572007
1297172606001,0.576364
1297172666001,0.569680
1297172726001,0.571669
1297172786001,0.575486
1297172846001,0.574606
1297172906001,0.572730
1297172966001,0.573961
1297173026001,0.572187
1297173086001,0.579962
1297173146001,0.579943
1297173206001,0.568739
1297173266001,0.576255
1297173326001,0.577631
1297173386001,0.571074
1297173446001,0.575429
1297173506001,0.577217
1297173566001,0.580830
1297173626012,0.569468
1297173686012,0.570321
1297173746012,0.571455
1297173806012,0.574525
1297173866012,0.576845
1297173926012,0.578472
1297173986012,0.574279
1297174046012,0.576634
1297174106012,0.570154
1297174166012,0.577206
1297174226012,0.574295
1297174286012,0.575737
1297174346012,0.573253
1297174406012,0.568329
1297174466012,0.572149
1297174526012,0.574390
1297174586012,0.574166
1297174646012,0.572280
1297174706012,0.575003
1297174766012,0.574293
1297174826012,0.576926
1297174886012,0.576243
1297174946012,0.579594
1297175006012,0.565952
1297175066012,0.577735
1297175126012,0.577526
1297175186012,0.577481
1297175246012,0.576863
1297175306012,0.581907
1297175366012,0.572849
1297175426012,0.578929
1297175486012,0.577982
1297175546012,0.577436
1297175606012,0.581404
1297175666012,0.575523
1297175726012,0.579246
1297175786012,0.577766
1297175846012,0.573856
1297175906012,0.576565
1297175966012,0.573295
1297176026012,0.572019
1297176086012,0.581687
1297176146012,0.577314
1297176206012,0.576287
1297176266012,0.577271
1297176326012,0.572930
1297176386012,0.578468
1297176446012,0.584921
1297176506012,0.584735
1297176566012,0.591917
1297176626012,0.590144
1297176686012,0.593208
1297176746012,0.589876
1297176806012,0.586925
1297176866012,0.597752
1297176926012,0.590383
1297176986012,0.595650
1297177046012,0.593318
1297177106012,0.600025
1297177166012,0.599655
1297177226024,0.597493
1297177286024,0.592147
1297177346024,0.598169
1297177406024,0.600144
1297177466024,0.599577
1297177526024,0.599055
1297177586024,0.594368
1297177646024,0.589999
1297177706024,0.590159
1297177766024,0.590638
1297177826024,0.593888
1297177886024,0.591823
1297177946024,0.587803
1297178006024,0.586410
1297178066024,0.581788
1297178126024,0.591221
1297178186024,0.586008
1297178246024,0.585348
1297178306024,0.581731
1297178366024,0.590697
1297178426024,0.585685
1297178486024,0.584534
1297178546024,0.588342
1297178606024,0.586053
1297178666024,0.586160
1297178726024,0.583758
1297178786024,0.586744
1297178846024,0.589734
1297178906024,0.586347
1297178966024,0.589694
1297179026024,0.583892
1297179086024,0.586154
1297179146024,0.584261
1297179206024,0.585904
1297179266024,0.584965
1297179326024,0.584858
1297179386024,0.581018
1297179446024,0.589153
1297179506024,0.586031
1297179566024,0.578531
1297179626024,0.586332
1297179686024,0.585053
1297179746024,0.580026
1297179806024,0.583132
1297179866024,0.585360
1297179926024,0.589272
1297179986024,0.581073
1297180046024,0.587369
1297180106024,0.585448
1297180166024,0.587009
1297180226024,0.591756
1297180286024,0.580483
1297180346024,0.579839
1297180406024,0.582164
1297180466024,0.589425
1297180526024,0.584005
1297180586024,0.583287
1297180646024,0.583643
1297180706024,0.583723
1297180766024,0.583665
1297180826035,0.588677
1297180886035,0.585100
1297180946035,0.591682
1297181006035,0.582043
1297181066035,0.585358
1297181126035,0.590385
1297181186035,0.583954
1297181246035,0.589826
1297181306035,0.581059
1297181366035,0.582646
1297181426035,0.583857
1297181486035,0.577911
1297181546035,0.587499
1297181606035,0.590172
1297181666035,0.586791
1297181726035,0.588860
1297181786035,0.588405
1297181846035,0.594318
1297181906035,0.584465
1297181966035,0.595144
1297182026035,0.591819
1297182086035,0.589826
1297182146035,0.585473
1297182206035,0.584490
1297182266035,0.588633
1297182326035,0.589266
1297182386035,0.589581
1297182446035,0.590324
1297182506035,0.594679
1297182566035,0.592632
1297182626035,0.583046
1297182686035,0.593383
1297182746035,0.592402
1297182806035,0.593035
1297182866035,0.593787
1297182926035,0.591713
1297182986035,0.589639
1297183046035,0.593506
1297183106035,0.589591
1297183166035,0.591829
1297183226035,0.597170
1297183286035,0.595552
1297183346035,0.598152
1297183406035,0.598301
1297183466035,0.595033
1297183526035,0.598362
1297183586035,0.595865
1297183646035,0.600809
1297183706035,0.593080
1297183766035,0.598804
1297183826035,0.593068
1297183886035,0.593838
1297183946035,0.603882
1297184006035,0.601405
1297184066035,0.601993
1297184126035,0.600317
1297184186035,0.606212
1297184246035,0.604089
1297184306035,0.602900
1297184366035,0.604458
1297184426047,0.598300
1297184486047,0.599760
1297184546047,0.606721
1297184606047,0.606713
1297184666047,0.599781
1297184726047,0.602915
1297184786047,0.602478
1297184846047,0.602915
1297184906047,0.604502
1297184966047,0.601322
1297185026047,0.607410
1297185086047,0.601226
1297185146047,0.604084
1297185206047,0.609800
1297185266047,0.603861
1297185326047,0.600613
1297185386047,0.605737
1297185446047,0.602687
1297185506047,0.605366
1297185566047,0.607891
1297185626047,0.605897
1297185686047,0.602914
1297185746047,0.606094
1297185806047,0.597291
1297185866047,0.603620
1297185926047,0.599988
1297185986047,0.599680
1297186046047,0.592854
1297186106047,0.604069
1297186166047,0.598670
1297186226047,0.604752